Regional Weather Roundup
Issued by NWS Newport/Morehead, NC

Current Version | Previous Version | Graphics & Text | Print | Product List | Glossary Off
Versions: 1 2 3 4 5 6 7 8 9 10 11 12 13 14 15 16 17 18 19 20 21 22 23 24 25 26 27 28 29 30 31 32 33 34 35 36 37 38 39 40 41 42 43 44 45 46 47 48 49 50

000
ASUS42 KMHX 251213
RWRMHX
WEATHER ROUNDUP FOR EASTERN NORTH CAROLINA
NATIONAL WEATHER SERVICE NEWPORT/MOREHEAD CITY NC
800 AM EDT THU AUG 25 2016

NOTE: "FAIR" INDICATES FEW OR NO CLOUDS BELOW 12,000 FEET
WITH NO SIGNIFICANT WEATHER AND/OR OBSTRUCTIONS TO VISIBILITY

NCZ015>017-031-032-045>047-102-103-251300-
NORTH COAST

CITY           SKY/WX    TMP DP  RH WIND       PRES   REMARKS
EDENTON        SUNNY    N/A N/A N/A CALM      30.19R
ELIZABETH CITY SUNNY     72  71  97 CALM      30.18S
KITTY HAWK     SUNNY     77  74  88 CALM      30.17R
MANTEO         SUNNY     76  72  87 CALM      30.18R

$$

NCZ045>047-081-094-103-104-251300-
CENTRAL COAST

CITY           SKY/WX    TMP DP  RH WIND       PRES   REMARKS
FRISCO         NOT AVBL

$$

NCZ095-097-098-100-101-251300-
SOUTHERN COAST

CITY           SKY/WX    TMP DP  RH WIND       PRES   REMARKS
BEAUFORT       SUNNY     75  68  78 NE6       30.16S
CEDAR ISLAND   NOT AVBL
JACKSONVILLE   MOSUNNY   74  69  85 N5        30.17R
PINEY ISLAND   NOT AVBL
WILMINGTON     MOSUNNY   73  69  87 N5        30.16R


$$

NCZ011>013-027>030-043-044-078>080-089-090>093-098-251300-
COASTAL PLAIN

CITY           SKY/WX    TMP DP  RH WIND       PRES   REMARKS
AHOSKIE        SUNNY     64  64  98 CALM      30.19S FOG
CLINTON        SUNNY     69  67  96 CALM      30.19R
ELIZABETHTOWN  MOSUNNY   70  67  91 NW3       30.18R
GOLDSBORO      SUNNY     70  70 100 CALM      30.17R
GREENVILLE     SUNNY     70  70 100 CALM      30.19S FOG
HAVELOCK       MOSUNNY   77  70  79 N3        30.17S
KENANSVILLE    NOT AVBL
KINSTON        SUNNY     70  68  94 CALM      30.19R
NEW BERN       SUNNY     75  72  90 CALM      30.19R
RICHLANDS      PTSUNNY   72  70  93 NE5       30.18R
ROCKY MOUNT    SUNNY     67  67 100 CALM      30.19R
WASHINGTON     SUNNY     68  67  96 CALM      30.18S
WHITEVILLE     SUNNY     70  66  88 CALM      30.16S

$$

AMZ130-135-150-152-154-156-158-170-250-252-270-ANZ085-086-088-633-658-670-251300-
MARINE OBSERVATIONS

STATION/POSITION TIME  TEMP    WIND        PRES    WAVE   SWELL
                       AIR SEA DIR/SP/G            HT/PER HT/PER
                 (UTC) (F)     (DEG/KT/KT) (MB)    (FT/S) (FT/S)
CHESAPEAKE LIGHT NOT AVBL
64 E VA BEACH    1150   80 81  260/  2/  4 1021.5    3/10   3/10
DUCK             1100   77 78  150/  3/  3 1020.9
2 E DUCK         1111      78                N/A     3/11   2/11
OREGON INLET     1100   76 80   10/  2/  2 1021.5
13E OREGON INLT  1200      78                N/A     3/10   3/10
HATTERAS CG      1100   77 80   50/  3/  4 1020.9
DIAMOND BUOY     1150   81 84   90/ 10/ 12 1021.1    3/10   3/10
CAPE LOOKOUT     1200   79     360/  7/  8 1020.9
BEAUFORT LAB     1100   74 80   10/  4/  5 1020.5
30 SE NEW RVR IN 1108   81 84   70/  8/ 12 1020.7
30 SE NEW RVR IN 1125      84                N/A     3/ 7
27 SE WRIGHTSVLE 1108   82 84   60/  6/ 10 1020.8
5 SE WRIGHTSVLE  1108   81 82   80/  6/ 10 1021.7
225 S CAPE HAT   1150   81 84   60/ 14/ 17 1018.9    6/ 8   3/ 8
41 SE CHARLESTON 1150   81 83   20/ 12/ 14 1019.3    3/11   2/11

$$



USA.gov is the U.S. government's official web portal to all federal, state and local government web resources and services.